Regional Weather Roundup
Issued by NWS

Home | Current Version | Previous Version | Text Only | Print | Product List | Glossary Off
Versions: 1 2 3 4 5 6 7 8 9 10 11 12 13 14 15 16 17 18 19 20 21 22 23 24 25 26 27 28 29 30 31 32 33 34 35 36 37 38 39 40 41 42 43 44 45 46 47 48 49 50

000
ASUS43 KOAX 210602
RWRNE

WEATHER ROUNDUP FOR NEBRASKA
NATIONAL WEATHER SERVICE OMAHA NE
100 AM CDT TUE OCT 21 2014

NOTES: SATELLITE DATA IS BEING USED TO AUGMENT CLOUD COVER ABOVE
       12000 FEET.
       "FAIR" INDICATES FEW OR NO CLOUDS BELOW 12,000 FEET WITH NO
       SIGNIFICANT WEATHER AND/OR OBSTRUCTIONS TO VISIBILITY.

  * THESE STATIONS DO NOT REPORT WEATHER SUCH AS RAIN...SNOW OR FOG.

NEZ001>004-019>022-054>056-210700-
NEBRASKA PANHANDLE

CITY           SKY/WX    TMP DP  RH WIND       PRES   REMARKS
SCOTTSBLUFF    CLEAR     60  40  47 SE10      29.99F
6HR MIN TEMP:  52; 6HR MAX TEMP:  69;

ALLIANCE       CLEAR     46  39  76 S10       30.00F
6HR MIN TEMP:  45; 6HR MAX TEMP:  61;

CHADRON        LGT RAIN  65  38  36 S17       29.91F
6HR MIN TEMP:  63; 6HR MAX TEMP:  72; 6HR PCP: TRACE;

KIMBALL        CLEAR     51  40  66 S10       30.04S
SIDNEY         CLEAR     50  41  71 S12       30.06F
6HR MIN TEMP:  50; 6HR MAX TEMP:  66;

$$

NEZ057>060-069>072-079>082-210700-
SOUTHWEST NEBRASKA

CITY           SKY/WX    TMP DP  RH WIND       PRES   REMARKS
NORTH PLATTE   CLEAR     53  39  59 S7        30.05S
6HR MIN TEMP:  47; 6HR MAX TEMP:  65;

IMPERIAL       CLEAR     53  37  54 S7        30.07S
6HR MIN TEMP:  53; 6HR MAX TEMP:  69;

LEXINGTON      CLEAR     52  42  67 S3        30.05F
MCCOOK         CLEAR     56  40  55 SW9       30.06S
6HR MIN TEMP:  53; 6HR MAX TEMP:  70;

OGALLALA       CLEAR     52  40  63 SW5       30.05S
$$

NEZ005>010-023>029-035>040-094-210700-
NORTH CENTRAL NEBRASKA

CITY           SKY/WX    TMP DP  RH WIND       PRES   REMARKS
VALENTINE      CLEAR     59  39  47 S15G29    29.97F
6HR MIN TEMP:  55; 6HR MAX TEMP:  68;

AINSWORTH      CLEAR     56  40  54 S12       29.99F
BROKEN BOW     CLEAR     43  38  82 CALM      30.04F
6HR MIN TEMP:  41; 6HR MAX TEMP:  66;

O`NEILL        CLEAR     50  42  74 S7        30.03S
ORD            CLEAR     43  37  79 E3        30.04S
6HR MIN TEMP:  39; 6HR MAX TEMP:  62;

THEDFORD       CLEAR     57  40  54 S8        30.03S
$$

NEZ041-046>049-061>064-073>077-083>087-210700-
SOUTH CENTRAL NEBRASKA

CITY           SKY/WX    TMP DP  RH WIND       PRES   REMARKS
GRAND ISLAND   CLEAR     50  39  66 S7        30.06F
6HR MIN TEMP:  50; 6HR MAX TEMP:  62;

AURORA           N/A     50  37  60 S6        30.07R HAZE
HASTINGS       CLEAR     55  39  54 S5        30.06F
6HR MIN TEMP:  52; 6HR MAX TEMP:  66;

HEBRON         CLEAR     42  38  86 CALM      30.08R
HOLDREGE       CLEAR     51  41  67 CALM      30.06F
KEARNEY *      CLEAR     48  39  71 S7        30.07R
YORK           CLEAR     50  37  62 S6        30.07S
$$

NEZ011>018-030>034-042>045-210700-
NORTHEAST NEBRASKA

CITY           SKY/WX    TMP DP  RH WIND       PRES   REMARKS
NORFOLK        CLEAR     44  35  70 SE3       30.05S
6HR MIN TEMP:  41; 6HR MAX TEMP:  61;

ALBION         CLEAR     41  36  83 CALM      30.05F
COLUMBUS *     CLEAR     41  34  75 CALM      30.07S
FREMONT        FOG       45  43  93 CALM      30.06S VSB 1
TEKAMAH        CLEAR     42  38  85 S3        30.06F
6HR MIN TEMP:  40; 6HR MAX TEMP:  60;

WAYNE          CLEAR     36  34  93 CALM      30.06F
$$

NEZ050>053-065>068-078-088>093-210700-
SOUTHEAST NEBRASKA

CITY           SKY/WX    TMP DP  RH WIND       PRES   REMARKS
LINCOLN        CLEAR     39  36  89 CALM      30.08S
6HR MIN TEMP:  39; 6HR MAX TEMP:  61;

OMAHA EPPLEY   CLEAR     45  43  93 CALM      30.07S
6HR MIN TEMP:  45; 6HR MAX TEMP:  66;

BEATRICE       CLEAR     42  37  83 CALM      30.07S
FALLS CITY     CLEAR     45  40  82 CALM      30.07R
6HR MIN TEMP:  44; 6HR MAX TEMP:  65;

NEBRASKA CITY  CLEAR     57  32  38 CALM      30.07S
PLATTSMOUTH    CLEAR     53  38  57 CALM      30.06F
$$

NEZ044-045-051>053-067-210700-
OMAHA AREA

CITY           SKY/WX    TMP DP  RH WIND       PRES   REMARKS
OMAHA EPPLEY   CLEAR     45  43  93 CALM      30.07S
6HR MIN TEMP:  45; 6HR MAX TEMP:  66;

FREMONT        FOG       45  43  93 CALM      30.06S VSB 1
MILLARD        CLEAR     45  44  96 CALM      30.06F FOG
PLATTSMOUTH    CLEAR     53  38  57 CALM      30.06F
WAHOO          FAIR      42  37  80 CALM      30.07R HAZE
$$



USA.gov is the U.S. government's official web portal to all federal, state and local government web resources and services.